CAPE
0 0 0 0 0 0 0 0 0 0 0 0 1 1 0 11 13 15 7 22 1 3 0 0 0 705 1389 1273 582 79 438 729 413 553 1136 737 470 457 118 0 0 0 0 0
0 0 0 0 0 0 0 0 0 0 0 0 0 3 8 18 23 27 22 17 33 2 0 0 0 1 626 1303 731 687 801 869 575 964 625 208 159 266 39 9 0 0 0 0
0 0 0 0 0 0 0 0 0 0 0 0 0 2 8 2 14 15 10 16 12 31 4 0 0 1 268 1174 1139 839 374 1099 722 830 258 2 0 0 0 0 1 0 0 0
0 0 0 0 0 0 0 0 0 0 0 4 1 13 8 0 3 9 10 23 33 32 55 36 2 36 117 651 1287 1221 878 879 800 449 7 2 0 1 3 0 0 0 0 0
0 0 0 0 0 0 0 0 0 0 0 2 3 9 2 0 0 2 0 10 5 1 149 464 64 37 14 349 707 1296 667 137 325 99 18 70 1 0 2 0 0 0 0 0
0 0 0 0 0 0 0 0 0 0 0 11 1 10 18 0 0 1 48 13 8 5 6 625 440 143 99 524 1053 895 346 178 17 1 21 1 1 1 1 4 4 6 6 3
0 0 0 0 0 0 0 0 19 16 17 9 0 16 21 7 0 40 45 11 7 7 5 289 733 523 433 1288 1284 757 274 82 131 18 1 1 1 1 1 2 2 2 5 7
0 0 0 0 0 0 0 0 0 2 0 0 6 3 13 3 6 14 1 6 5 9 5 25 1276 1361 1156 1212 736 105 56 2 2 1 1 1 1 2 2 4 7 11 8 6
0 0 0 0 0 0 0 0 0 1 1 22 24 0 38 37 13 0 0 2 5 7 7 6 2 635 589 441 200 31 3 3 2 3 6 9 5 4 4 2 2 16 3 5
0 0 0 0 0 0 0 0 0 10 22 7 7 0 0 0 0 0 0 0 1 7 8 6 5 2 2 17 103 22 8 6 11 21 30 27 28 5 5 7 7 5 2 0
0 0 0 0 0 0 0 0 0 0 0 3 3 0 0 0 0 0 0 0 0 3 3 4 2 4 3 1 2 4 0 3 0 0 0 0 0 0 0 0 0 1 0 2
0 0 0 0 0 0 0 0 0 0 0 0 0 0 0 0 0 0 0 0 0 0 4 1 0 0 0 1 0 0 0 0 0 0 0 0 0 0 0 0 0 0 0 0
0 0 0 0 0 0 0 0 0 0 0 0 0 0 0 0 0 0 0 0 0 0 0 0 0 0 0 0 0 0 0 0 0 0 0 0 0 0 0 0 0 0 0 0
0 0 0 0 0 0 0 0 0 0 0 0 0 0 0 0 0 0 0 0 0 0 0 0 0 0 0 0 0 0 0 0 0 0 0 0 0 0 0 0 0 0 0 0
0 0 0 0 0 0 0 0 0 0 0 0 0 0 0 0 0 0 0 0 0 0 0 0 0 0 0 0 0 0 0 0 0 0 0 0 0 0 0 0 0 0 0 0
0 0 0 0 0 0 0 0 0 0 0 0 0 0 0 0 0 0 0 0 0 0 0 0 0 0 0 0 0 0 0 0 0 0 0 0 0 0 0 0 0 0 0 0
0 0 0 0 0 0 0 0 0 0 0 0 0 0 0 0 0 0 0 0 0 0 0 0 0 0 0 0 0 0 0 0 0 0 0 0 0 0 0 0 0 0 0 0
0 0 0 0 0 0 0 0 0 0 0 0 0 0 0 0 0 0 0 0 0 0 0 0 0 0 0 0 0 0 0 0 0 0 0 0 0 0 0 0 0 0 0 0
0 0 0 0 0 0 0 0 0 0 0 0 0 0 0 0 0 0 0 0 0 0 0 0 0 0 0 0 0 0 0 0 0 0 0 0 0 0 0 0 0 0 0 0
0 0 0 0 0 0 0 0 0 0 0 0 0 0 0 0 0 0 0 0 0 0 0 0 0 0 0 0 0 0 0 0 0 0 0 0 0 0 0 0 0 0 0 0
0 0 0 0 0 0 0 0 0 0 0 0 0 0 0 0 0 0 0 0 0 0 0 0 0 0 0 0 0 0 0 0 0 0 0 0 0 0 0 0 0 0 0 0
0 0 0 0 0 0 0 0 0 0 0 0 0 0 0 0 0 0 0 0 0 0 0 0 0 0 0 0 0 0 0 0 0 0 0 0 0 0 0 0 0 0 0 0
0 0 0 0 0 0 0 0 0 0 0 0 0 0 0 0 0 0 0 0 0 0 0 0 0 0 0 0 0 0 0 0 0 0 0 0 0 0 0 0 0 0 0 0
0 0 0 0 0 0 0 0 0 0 0 0 0 0 0 0 0 0 0 0 0 0 0 0 0 0 0 0 0 0 0 0 0 0 0 0 0 0 0 0 0 0 0 0
0 0 0 0 0 0 0 0 0 0 0 0 0 0 0 0 0 0 0 0 0 0 0 0 0 0 0 0 0 0 0 0 0 0 0 0 0 0 0 0 0 0 0 0
0 0 0 0 0 0 0 0 0 0 0 0 0 0 0 0 0 0 0 0 0 0 0 0 0 0 0 0 0 0 0 0 0 0 0 0 0 0 0 0 0 0 0 0
CIN
0 0 0 0 0 0 0 0 0 0 0 0 0 0 0 0 -1 -1 0 0 -1 0 0 0 0 -7 -1 -10 -49 -82 -21 -7 -42 -23 0 0 -2 -6 -11 0 0 0 0 0
0 0 0 0 0 0 0 0 0 0 0 0 0 0 0 0 -1 0 0 0 0 0 0 0 0 -259 -15 -1 -29 0 -1 -3 -9 -16 -8 -19 -32 -8 -28 -1 0 0 0 0
0 0 0 0 0 0 0 0 0 0 0 0 0 -1 0 -4 -2 -2 -4 -7 -1 0 0 0 -93 -277 -48 -5 -46 -6 0 -1 -21 -11 -29 -28 0 0 0 -1 -1 0 0 0
0 0 0 0 0 0 0 0 0 0 0 0 0 -1 -2 -2 -2 0 0 0 0 -37 -4 -29 -152 -202 -107 -29 -3 -1 -9 -7 -2 -4 -75 0 0 0 0 0 0 0 0 0
0 0 0 0 0 0 0 0 0 0 0 0 0 -1 -2 0 0 0 -1 -2 -1 0 -19 0 -73 -154 -246 -55 -7 0 -12 -8 -20 -72 -137 -19 -11 0 0 0 0 0 0 0
0 0 0 0 0 0 0 0 0 0 0 -3 0 -1 -1 -2 -1 -1 0 -46 0 0 -14 -16 0 -64 -150 -38 -7 -1 -14 -46 -79 -2 -29 0 0 0 0 0 0 0 0 0
0 0 0 0 0 0 0 0 -1 0 0 0 0 0 0 -12 0 0 0 0 0 0 0 -76 -1 -25 -51 -2 -2 -14 -67 -153 -45 -23 0 0 0 0 0 0 0 0 0 0
0 0 0 0 0 0 0 0 0 0 0 0 0 -4 0 -12 -7 -6 -17 0 0 0 0 -77 -2 -7 -8 -8 -23 -151 -174 0 0 0 0 0 0 0 0 0 0 0 0 0
0 0 0 0 0 0 0 0 0 0 0 -1 -6 0 -3 -1 -1 0 0 0 0 0 0 0 0 -43 -43 -75 -107 -126 0 0 0 0 0 0 0 0 0 0 0 0 0 0
0 0 0 0 0 0 0 0 0 -1 0 -1 -1 0 0 0 0 0 0 0 0 0 0 0 0 0 0 -165 -165 -159 0 0 0 0 0 0 0 -1 0 0 0 0 0 0
0 0 0 0 0 0 0 0 0 0 0 0 0 0 0 0 0 0 0 0 0 0 0 0 0 0 0 0 0 0 0 0 0 0 0 0 0 0 0 0 0 0 0 0
0 0 0 0 0 0 0 0 0 0 0 0 0 0 0 0 0 0 0 0 0 0 0 0 0 0 0 0 0 0 0 0 0 0 0 0 0 0 0 0 0 0 0 0
0 0 0 0 0 0 0 0 0 0 0 0 0 0 0 0 0 0 0 0 0 0 0 0 0 0 0 0 0 0 0 0 0 0 0 0 0 0 0 0 0 0 0 0
0 0 0 0 0 0 0 0 0 0 0 0 0 0 0 0 0 0 0 0 0 0 0 0 0 0 0 0 0 0 0 0 0 0 0 0 0 0 0 0 0 0 0 0
0 0 0 0 0 0 0 0 0 0 0 0 0 0 0 0 0 0 0 0 0 0 0 0 0 0 0 0 0 0 0 0 0 0 0 0 0 0 0 0 0 0 0 0
0 0 0 0 0 0 0 0 0 0 0 0 0 0 0 0 0 0 0 0 0 0 0 0 0 0 0 0 0 0 0 0 0 0 0 0 0 0 0 0 0 0 0 0
0 0 0 0 0 0 0 0 0 0 0 0 0 0 0 0 0 0 0 0 0 0 0 0 0 0 0 0 0 0 0 0 0 0 0 0 0 0 0 0 0 0 0 0
0 0 0 0 0 0 0 0 0 0 0 0 0 0 0 0 0 0 0 0 0 0 0 0 0 0 0 0 0 0 0 0 0 0 0 0 0 0 0 0 0 0 0 0
0 0 0 0 0 0 0 0 0 0 0 0 0 0 0 0 0 0 0 0 0 0 0 0 0 0 0 0 0 0 0 0 0 0 0 0 0 0 0 0 0 0 0 0
0 0 0 0 0 0 0 0 0 0 0 0 0 0 0 0 0 0 0 0 0 0 0 0 0 0 0 0 0 0 0 0 0 0 0 0 0 0 0 0 0 0 0 0
0 0 0 0 0 0 0 0 0 0 0 0 0 0 0 0 0 0 0 0 0 0 0 0 0 0 0 0 0 0 0 0 0 0 0 0 0 0 0 0 0 0 0 0
0 0 0 0 0 0 0 0 0 0 0 0 0 0 0 0 0 0 0 0 0 0 0 0 0 0 0 0 0 0 0 0 0 0 0 0 0 0 0 0 0 0 0 0
0 0 0 0 0 0 0 0 0 0 0 0 0 0 0 0 0 0 0 0 0 0 0 0 0 0 0 0 0 0 0 0 0 0 0 0 0 0 0 0 0 0 0 0
0 0 0 0 0 0 0 0 0 0 0 0 0 0 0 0 0 0 0 0 0 0 0 0 0 0 0 0 0 0 0 0 0 0 0 0 0 0 0 0 0 0 0 0
0 0 0 0 0 0 0 0 0 0 0 0 0 0 0 0 0 0 0 0 0 0 0 0 0 0 0 0 0 0 0 0 0 0 0 0 0 0 0 0 0 0 0 0
0 0 0 0 0 0 0 0 0 0 0 0 0 0 0 0 0 0 0 0 0 0 0 0 0 0 0 0 0 0 0 0 0 0 0 0 0 0 0 0 0 0 0 0
Wind_Speed
1 10 7 9 9 12 13 15 14 11 7 10 11 8 5 6 5 8 13 12 13 13 6 3 9 12 10 10 10 9 9 10 6 10 9 6 6 7 7 7 11 10 10 11
8 3 7 9 11 13 15 13 13 7 3 8 12 4 3 10 12 15 11 11 11 11 12 13 9 10 11 13 16 25 17 18 15 12 9 5 3 3 5 4 6 6 8 10
8 6 6 9 11 13 15 10 15 15 13 7 16 8 8 18 13 15 18 19 15 13 11 13 6 10 9 13 13 15 16 18 14 15 10 8 6 4 4 6 6 5 8 8
6 3 6 10 10 12 12 17 13 9 8 7 10 3 7 16 15 18 16 16 17 13 15 11 10 9 11 12 12 12 12 13 14 14 10 13 6 5 1 2 4 1 5 8
6 6 9 9 12 11 11 13 8 6 9 7 12 5 5 19 16 22 19 15 14 12 14 15 10 9 10 8 7 11 7 3 9 13 12 7 8 6 6 4 6 3 5 9
5 3 3 8 14 7 14 14 5 7 8 2 13 5 5 12 12 18 16 16 14 15 14 15 7 5 5 5 7 9 11 6 10 14 12 10 9 8 6 5 5 4 3 4
5 4 1 6 13 3 15 14 3 3 4 7 13 3 8 12 11 11 12 14 14 14 14 14 4 7 6 10 12 8 10 12 8 13 13 11 8 6 4 6 4 7 5 4
4 5 4 8 6 8 8 8 3 3 6 6 8 8 6 9 5 8 14 14 13 14 12 13 12 12 9 10 14 13 12 11 10 13 12 11 10 6 3 4 4 3 2 3
4 0 3 4 5 8 9 7 4 3 5 6 2 9 7 10 14 15 16 16 16 14 13 13 14 11 9 10 13 14 12 12 11 11 9 10 8 8 6 5 5 3 5 4
3 5 3 3 3 4 4 3 3 2 4 6 4 10 9 14 15 15 17 16 14 13 14 14 13 13 12 12 12 13 14 13 13 10 10 9 9 10 8 5 4 4 6 6
5 4 6 3 2 6 2 2 3 4 3 5 8 8 8 10 10 12 14 12 13 13 13 12 11 12 12 13 15 16 14 14 14 13 11 12 9 10 9 8 7 6 6 6
4 6 5 2 4 1 3 4 6 5 6 4 5 5 7 7 8 9 11 10 10 11 9 9 11 12 13 13 14 14 14 15 15 12 12 12 12 10 10 8 7 6 6 7
2 4 6 9 5 4 5 1 4 6 5 7 5 6 5 5 9 7 10 10 9 10 11 10 13 12 11 11 10 12 12 12 12 12 12 11 10 11 11 10 9 8 9 9
2 7 8 8 7 5 9 8 6 6 5 9 3 5 5 4 5 7 8 8 9 8 8 12 12 11 12 11 11 14 13 14 14 13 11 12 11 10 8 10 11 10 10 10
5 7 6 11 11 11 14 12 11 13 12 7 8 6 3 2 5 6 9 8 9 10 9 10 11 12 12 14 13 12 13 14 13 14 12 12 11 11 11 10 10 10 9 9
5 5 6 12 6 4 10 9 10 12 12 12 13 12 1 6 8 7 8 9 9 9 9 10 11 12 12 13 11 11 12 12 12 12 12 11 10 10 9 9 8 8 7 7
5 4 5 4 2 8 12 3 11 12 7 9 6 6 8 7 7 8 9 9 10 10 10 10 10 10 11 11 11 11 11 11 11 11 10 10 9 8 8 7 7 6 6 5
5 6 4 5 9 5 5 3 2 9 6 8 6 3 6 5 6 8 10 11 11 11 11 10 9 9 9 10 10 10 10 10 10 10 9 8 7 7 6 6 6 5 5 4
7 5 5 5 4 11 1 5 4 7 5 9 11 8 8 6 5 7 10 11 13 13 12 10 9 9 9 9 9 9 9 9 9 8 7 6 6 5 6 6 5 5 5 5
7 8 5 3 4 3 6 6 3 1 7 4 8 10 11 10 7 7 15 12 13 13 12 12 12 12 10 9 9 8 8 8 7 7 6 6 5 5 5 5 5 4 4 4
7 7 11 9 5 7 4 8 5 4 4 2 7 9 12 12 1 7 15 13 13 13 14 13 13 11 11 10 9 8 8 7 7 6 6 5 5 5 4 3 4 4 5 5
10 10 6 7 6 8 12 7 6 5 4 5 7 7 10 10 5 7 12 13 14 15 15 15 13 12 11 11 10 9 8 7 6 6 5 5 5 4 3 3 3 3 3 4
8 8 5 10 5 5 15 2 7 3 5 5 7 7 8 9 9 10 11 13 14 15 14 14 13 12 12 11 10 10 10 8 7 6 6 5 4 3 3 2 2 2 3 4
11 9 4 4 11 12 10 12 7 8 8 6 7 7 9 10 11 12 11 12 13 14 15 14 14 14 13 11 10 9 10 9 8 7 6 5 4 3 2 1 2 2 3 3
5 14 13 10 9 2 9 14 14 12 12 12 11 11 11 11 11 13 13 13 14 13 14 13 14 13 13 12 11 11 10 9 8 7 6 5 4 4 3 1 2 2 5 4
9 10 11 8 8 11 8 11 13 12 12 13 13 12 11 11 12 12 12 12 13 14 14 13 14 13 14 13 12 11 10 9 8 7 6 5 4 3 2 1 3 5 3 2
Wind_Direction
260 280 9 342 339 323 308 305 302 349 23 324 358 323 34 21 347 346 338 316 305 293 269 283 259 235 217 173 237 223 162 169 179 147 160 175 172 175 182 172 178 173 166 165
218 258 7 316 306 310 312 315 341 303 207 300 336 219 152 47 30 359 329 325 308 293 279 252 217 242 205 192 180 205 177 181 189 152 153 139 120 144 155 164 143 130 156 156
294 23 331 313 315 341 324 347 327 304 313 239 331 182 225 26 23 8 349 344 318 318 288 276 256 258 215 196 200 182 183 186 180 155 136 115 85 53 95 159 144 159 158 162
284 32 311 321 323 344 304 1 322 288 288 348 28 322 65 19 6 358 354 336 325 324 306 276 247 252 249 208 183 200 195 193 179 137 126 132 123 131 100 95 104 36 148 145
70 328 330 309 348 330 313 324 323 305 284 325 15 313 338 17 351 340 338 348 339 326 319 300 263 227 248 236 189 177 121 327 132 130 130 124 106 102 124 116 137 130 137 143
287 335 286 326 315 294 299 307 210 275 264 243 17 18 340 11 336 324 351 350 352 339 332 311 267 234 214 211 122 114 135 125 122 117 116 114 123 111 122 143 171 168 184 202
259 168 22 321 319 184 354 349 6 326 3 28 3 322 45 350 352 357 348 359 356 352 345 329 186 170 173 95 99 98 95 101 113 97 104 110 110 120 149 170 183 164 150 161
321 191 3 11 4 326 332 331 36 299 353 332 311 6 20 332 85 48 15 16 14 5 357 358 28 49 71 90 92 100 101 94 97 99 114 120 107 124 114 157 172 175 149 115
326 15 122 24 335 339 354 15 0 300 205 261 227 69 167 27 24 24 30 15 18 7 11 16 27 41 60 78 97 109 109 104 109 109 106 111 126 140 144 171 175 157 110 118
62 279 122 48 256 190 324 334 253 136 333 320 29 63 7 7 12 18 29 21 11 11 24 27 28 36 39 59 78 84 91 102 99 99 92 85 83 64 92 90 96 107 119 121
313 263 137 191 176 347 235 350 342 267 350 330 320 73 11 13 20 24 41 24 18 21 26 30 40 41 50 55 67 75 68 78 71 63 70 71 63 66 66 66 51 65 72 116
46 314 281 15 96 234 310 339 324 327 348 302 263 75 31 38 54 36 61 38 38 43 56 49 52 55 53 60 62 76 77 78 77 78 78 78 80 71 72 81 84 83 100 103
56 199 276 156 169 176 240 343 294 304 264 274 312 72 34 57 75 62 66 59 54 49 60 60 71 63 69 68 72 77 81 88 90 90 85 81 79 86 90 92 92 96 96 101
288 266 268 300 344 315 285 289 235 287 274 344 299 360 88 76 91 98 91 94 85 65 66 89 85 85 89 84 78 82 90 92 89 89 88 90 91 90 90 88 90 91 92 93
253 264 267 279 280 277 279 273 265 242 256 280 359 316 2 106 128 116 126 126 111 98 86 86 93 97 98 93 90 92 92 92 98 95 90 94 93 91 89 85 80 79 79 83
196 279 288 286 251 247 262 258 245 243 253 260 274 283 74 130 135 150 141 141 136 126 124 118 113 111 104 103 103 101 101 103 101 101 99 93 90 87 83 81 82 81 80 77
219 275 297 271 205 280 261 271 229 229 230 232 256 52 151 169 175 169 155 157 150 146 142 141 131 121 120 119 119 116 113 112 107 106 108 107 103 99 95 97 101 98 82 77
224 239 277 284 298 234 85 87 350 219 243 225 238 184 189 187 185 176 169 170 158 157 157 150 140 129 125 121 118 117 116 115 113 110 102 98 99 98 95 92 86 73 75 55
231 228 270 269 290 291 149 167 217 215 242 216 223 190 185 156 164 197 184 185 167 166 163 159 151 144 141 136 129 126 123 119 117 112 104 98 95 90 85 74 66 48 31 19
201 245 256 205 272 266 87 142 155 230 259 142 205 181 175 166 200 212 178 184 168 169 166 160 157 157 152 148 145 139 134 130 117 105 95 86 76 77 73 61 51 34 15 7
168 195 220 230 253 273 144 144 160 230 65 147 188 173 175 195 47 87 158 175 173 171 167 163 165 166 159 159 158 153 152 135 119 119 113 107 99 88 68 55 32 13 12 355
170 173 193 209 219 251 140 135 224 95 114 150 182 177 188 201 130 155 168 171 176 174 170 172 173 169 163 167 167 160 153 132 135 129 128 121 103 85 72 41 29 21 11 350
208 205 191 201 219 118 179 43 173 199 158 171 190 192 199 204 192 182 180 181 183 181 177 180 178 167 171 175 178 168 143 154 149 147 141 133 120 99 76 18 27 15 16 11
222 189 218 171 225 212 205 223 218 211 223 206 199 191 201 216 207 196 192 190 187 188 184 182 177 175 175 178 180 156 158 156 161 161 157 151 156 128 114 98 38 14 9 358
176 160 203 238 245 210 231 226 227 223 231 236 230 227 236 233 224 210 200 197 191 185 184 183 179 180 176 173 172 149 163 164 168 165 165 164 145 194 154 104 37 12 50 28
182 185 191 216 211 211 252 198 214 216 230 233 231 231 222 226 221 209 203 196 188 182 179 183 181 175 170 172 163 163 165 173 170 170 173 171 166 172 172 195 161 167 127 121